ANA378 RJCN-RJTT

Flight info

Callsign ANA378
Flight time 1h 32m
Altitude 30000
Route NOMOX Y112 OMGOL Y111 MQE Y106 RUBIS Y10 GODIN
Aircraft B738/M-SDE2E3FGHIRWXY/LB1

Departure

Time 2026-05-06 00:23
Airport Nakashibetsu Airport (RJCN)

Arrival

Time 2026-05-06 01:55
Airport Tokyo Haneda International Airport (RJTT)
Time Latitude Longitude Altitude Speed Heading
2026-05-06 00:06 43.57366 144.95598 223 ft 0 kts 228°
2026-05-06 00:16 43.57370 144.95605 223 ft 3 kts 205°
2026-05-06 00:16 43.57388 144.95606 224 ft 3 kts 143°
2026-05-06 00:17 43.57403 144.95591 224 ft 3 kts 143°
2026-05-06 00:17 43.57418 144.95575 223 ft 3 kts 143°
2026-05-06 00:17 43.57428 144.95556 223 ft 3 kts 83°
2026-05-06 00:17 43.57426 144.95543 224 ft 0 kts 49°
2026-05-06 00:19 43.57436 144.95543 224 ft 5 kts 346°
2026-05-06 00:19 43.57507 144.95511 225 ft 16 kts 341°
2026-05-06 00:19 43.57536 144.95497 225 ft 0 kts 341°
2026-05-06 00:20 43.57557 144.95486 225 ft 9 kts 340°
2026-05-06 00:20 43.57632 144.95533 224 ft 19 kts 67°
2026-05-06 00:20 43.57687 144.95753 222 ft 27 kts 71°
2026-05-06 00:20 43.57747 144.95992 225 ft 26 kts 71°
2026-05-06 00:21 43.57804 144.96216 224 ft 24 kts 70°
2026-05-06 00:21 43.57855 144.96426 225 ft 23 kts 72°
2026-05-06 00:21 43.57906 144.96629 226 ft 22 kts 70°
2026-05-06 00:21 43.57950 144.96825 226 ft 21 kts 68°
2026-05-06 00:22 43.57997 144.97016 225 ft 19 kts 86°
2026-05-06 00:22 43.58013 144.97131 225 ft 9 kts 12°
2026-05-06 00:22 43.58023 144.97099 225 ft 0 kts 249°
2026-05-06 00:23 43.58020 144.97086 226 ft 7 kts 251°
2026-05-06 00:23 43.57909 144.96640 226 ft 94 kts 251°
2026-05-06 00:23 43.57609 144.95423 295 ft 166 kts 250°
2026-05-06 00:23 43.57102 144.93843 963 ft 195 kts 235°
2026-05-06 00:24 43.56224 144.92267 1696 ft 219 kts 233°
2026-05-06 00:24 43.55332 144.90522 2171 ft 228 kts 237°
2026-05-06 00:24 43.54434 144.88654 2889 ft 238 kts 238°
2026-05-06 00:24 43.53511 144.86763 3888 ft 238 kts 239°
2026-05-06 00:25 43.52568 144.84865 4841 ft 242 kts 240°
2026-05-06 00:25 43.51609 144.82966 5883 ft 240 kts 240°
2026-05-06 00:25 43.50651 144.81075 6811 ft 242 kts 240°
2026-05-06 00:25 43.49684 144.79168 7681 ft 244 kts 240°
2026-05-06 00:26 43.48905 144.77095 8517 ft 243 kts 252°
2026-05-06 00:26 43.48353 144.74892 9477 ft 244 kts 254°
2026-05-06 00:26 43.47821 144.72655 10278 ft 250 kts 254°
2026-05-06 00:26 43.47248 144.70279 10567 ft 274 kts 253°
2026-05-06 00:27 43.46602 144.67680 10763 ft 299 kts 253°
2026-05-06 00:27 43.45892 144.64858 10925 ft 323 kts 253°
2026-05-06 00:27 43.45128 144.61906 11184 ft 341 kts 250°
2026-05-06 00:27 43.43812 144.59072 11789 ft 354 kts 233°
2026-05-06 00:28 43.42006 144.56799 12587 ft 360 kts 223°
2026-05-06 00:28 43.39937 144.54802 13279 ft 366 kts 219°
2026-05-06 00:28 43.37810 144.52847 13965 ft 369 kts 219°
2026-05-06 00:28 43.35679 144.50848 14524 ft 373 kts 220°
2026-05-06 00:29 43.33521 144.48839 15119 ft 378 kts 216°
2026-05-06 00:29 43.31026 144.47489 15708 ft 394 kts 199°
2026-05-06 00:29 43.28251 144.47142 16386 ft 405 kts 187°
2026-05-06 00:29 43.25414 144.47166 16983 ft 410 kts 186°
2026-05-06 00:30 43.22551 144.47232 17554 ft 413 kts 185°
2026-05-06 00:30 43.19673 144.47294 18155 ft 415 kts 185°
2026-05-06 00:30 43.16817 144.47336 18753 ft 415 kts 186°
2026-05-06 00:30 43.13919 144.47359 19237 ft 418 kts 186°
2026-05-06 00:31 43.11001 144.47371 19751 ft 420 kts 186°
2026-05-06 00:31 43.08066 144.47379 20208 ft 424 kts 186°
2026-05-06 00:31 43.05099 144.47386 20625 ft 428 kts 186°
2026-05-06 00:31 43.02114 144.47362 21065 ft 430 kts 188°
2026-05-06 00:32 42.99158 144.46889 21491 ft 426 kts 196°
2026-05-06 00:32 42.96243 144.46099 21927 ft 428 kts 197°
2026-05-06 00:32 42.93315 144.45282 22316 ft 432 kts 197°
2026-05-06 00:32 42.90359 144.44466 22718 ft 435 kts 197°
2026-05-06 00:33 42.87379 144.43661 23124 ft 438 kts 197°
2026-05-06 00:33 42.84379 144.42867 23443 ft 442 kts 196°
2026-05-06 00:33 42.81341 144.42073 23741 ft 446 kts 196°
2026-05-06 00:33 42.78291 144.41284 24096 ft 447 kts 196°
2026-05-06 00:34 42.75227 144.40495 24446 ft 449 kts 196°
2026-05-06 00:34 42.72154 144.39704 24761 ft 451 kts 196°
2026-05-06 00:34 42.69062 144.38907 25046 ft 453 kts 196°
2026-05-06 00:34 42.65955 144.38106 25334 ft 456 kts 196°
2026-05-06 00:35 42.62837 144.37303 25640 ft 458 kts 196°
2026-05-06 00:35 42.59694 144.36493 25912 ft 460 kts 196°
2026-05-06 00:35 42.56543 144.35682 26158 ft 463 kts 195°
2026-05-06 00:35 42.53381 144.34866 26539 ft 462 kts 196°
2026-05-06 00:36 42.50288 144.33813 26995 ft 456 kts 201°
2026-05-06 00:36 42.47270 144.32546 27455 ft 453 kts 202°
2026-05-06 00:36 42.44277 144.31242 27860 ft 452 kts 202°
2026-05-06 00:36 42.41278 144.29948 28230 ft 453 kts 202°
2026-05-06 00:37 42.38271 144.28682 28641 ft 452 kts 202°
2026-05-06 00:37 42.35267 144.27441 29103 ft 450 kts 201°
2026-05-06 00:37 42.32274 144.26215 29614 ft 448 kts 201°
2026-05-06 00:37 42.29301 144.24998 30048 ft 447 kts 201°
2026-05-06 00:38 42.26345 144.23782 30032 ft 451 kts 201°
2026-05-06 00:38 42.20346 144.21313 30059 ft 449 kts 201°
2026-05-06 00:39 42.14405 144.18873 30068 ft 445 kts 201°
2026-05-06 00:39 42.08477 144.16440 30071 ft 445 kts 201°
2026-05-06 00:40 42.02553 144.14016 30078 ft 445 kts 201°
2026-05-06 00:40 41.96626 144.11596 30069 ft 445 kts 201°
2026-05-06 00:41 41.90705 144.09183 30074 ft 444 kts 200°
2026-05-06 00:41 41.84789 144.06774 30088 ft 444 kts 200°
2026-05-06 00:42 41.78862 144.04369 30089 ft 445 kts 200°
2026-05-06 00:42 41.72932 144.01966 30092 ft 445 kts 200°
2026-05-06 00:43 41.67011 143.99571 30101 ft 445 kts 200°
2026-05-06 00:43 41.61083 143.97178 30111 ft 445 kts 200°
2026-05-06 00:44 41.55164 143.94793 30115 ft 445 kts 200°
2026-05-06 00:44 41.49277 143.92426 30115 ft 444 kts 200°
2026-05-06 00:45 41.43324 143.90036 30119 ft 444 kts 199°
2026-05-06 00:45 41.37438 143.87677 30127 ft 445 kts 200°
2026-05-06 00:46 41.31500 143.85292 30134 ft 446 kts 200°
2026-05-06 00:46 41.25547 143.82906 30125 ft 447 kts 199°
2026-05-06 00:47 41.19582 143.80519 30140 ft 448 kts 199°
2026-05-06 00:47 41.13601 143.78128 30152 ft 450 kts 199°
2026-05-06 00:48 41.07598 143.75733 30154 ft 451 kts 199°
2026-05-06 00:48 41.01588 143.73341 30165 ft 451 kts 199°
2026-05-06 00:49 40.95572 143.70950 30167 ft 452 kts 199°
2026-05-06 00:49 40.89552 143.68562 30167 ft 451 kts 199°
2026-05-06 00:50 40.83536 143.66180 30167 ft 451 kts 199°
2026-05-06 00:50 40.77770 143.63123 30176 ft 442 kts 217°
2026-05-06 00:51 40.73349 143.57663 30160 ft 434 kts 236°
2026-05-06 00:51 40.69981 143.51094 30180 ft 432 kts 237°
2026-05-06 00:52 40.66602 143.44559 30162 ft 431 kts 237°
2026-05-06 00:52 40.63195 143.38079 30170 ft 429 kts 237°
2026-05-06 00:53 40.59809 143.31669 30167 ft 428 kts 237°
2026-05-06 00:53 40.56394 143.25200 30169 ft 428 kts 237°
2026-05-06 00:54 40.53030 143.18807 30170 ft 427 kts 237°
2026-05-06 00:54 40.49652 143.12394 30169 ft 427 kts 237°
2026-05-06 00:55 40.46269 143.05987 30165 ft 427 kts 237°
2026-05-06 00:55 40.42879 142.99581 30165 ft 427 kts 237°
2026-05-06 00:56 40.39487 142.93185 30164 ft 427 kts 237°
2026-05-06 00:56 40.36085 142.86783 30162 ft 428 kts 237°
2026-05-06 00:57 40.32681 142.80391 30158 ft 428 kts 237°
2026-05-06 00:57 40.29272 142.74002 30168 ft 428 kts 237°
2026-05-06 00:58 40.25859 142.67619 30160 ft 427 kts 237°
2026-05-06 00:58 40.22449 142.61253 30159 ft 427 kts 237°
2026-05-06 00:59 40.19038 142.54900 30159 ft 426 kts 237°
2026-05-06 00:59 40.16210 142.49643 30148 ft 425 kts 236°
2026-05-06 01:00 40.12247 142.42289 30153 ft 422 kts 236°
2026-05-06 01:00 40.09443 142.37097 30155 ft 420 kts 236°
2026-05-06 01:01 40.06075 142.30871 30153 ft 418 kts 236°
2026-05-06 01:01 40.02721 142.24682 30152 ft 418 kts 236°
2026-05-06 01:02 39.99361 142.18495 30153 ft 418 kts 236°
2026-05-06 01:02 39.96000 142.12316 30154 ft 418 kts 236°
2026-05-06 01:03 39.92633 142.06138 30154 ft 418 kts 236°
2026-05-06 01:03 39.89250 141.99968 30145 ft 419 kts 234°
2026-05-06 01:04 39.85028 141.94702 30154 ft 424 kts 220°
2026-05-06 01:04 39.79878 141.90872 30183 ft 429 kts 209°
2026-05-06 01:05 39.74452 141.87610 30153 ft 430 kts 209°
2026-05-06 01:05 39.69031 141.84359 30140 ft 428 kts 209°
2026-05-06 01:06 39.63637 141.81106 30152 ft 426 kts 209°
2026-05-06 01:06 39.58276 141.77861 30146 ft 426 kts 209°
2026-05-06 01:07 39.52951 141.74603 30144 ft 427 kts 209°
2026-05-06 01:07 39.47526 141.71325 30173 ft 429 kts 209°
2026-05-06 01:08 39.42142 141.68063 30165 ft 431 kts 209°
2026-05-06 01:08 39.36702 141.64775 30180 ft 433 kts 209°
2026-05-06 01:09 39.31229 141.61474 30184 ft 435 kts 209°
2026-05-06 01:09 39.25738 141.58172 30185 ft 436 kts 208°
2026-05-06 01:10 39.20246 141.54875 30166 ft 436 kts 208°
2026-05-06 01:10 39.14754 141.51594 30191 ft 434 kts 208°
2026-05-06 01:11 39.09292 141.48319 30201 ft 433 kts 208°
2026-05-06 01:11 39.03820 141.45043 30206 ft 434 kts 208°
2026-05-06 01:12 38.98348 141.41781 30214 ft 434 kts 208°
2026-05-06 01:12 38.92874 141.38521 30207 ft 432 kts 209°
2026-05-06 01:13 38.87428 141.35286 30216 ft 429 kts 209°
2026-05-06 01:13 38.82027 141.32082 30210 ft 426 kts 209°
2026-05-06 01:14 38.74018 141.27340 30213 ft 424 kts 209°
2026-05-06 01:14 38.68677 141.24180 30208 ft 422 kts 210°
2026-05-06 01:15 38.63366 141.21047 30218 ft 420 kts 210°
2026-05-06 01:15 38.58070 141.17928 30216 ft 418 kts 210°
2026-05-06 01:16 38.52788 141.14821 30233 ft 417 kts 210°
2026-05-06 01:16 38.47509 141.11721 30222 ft 417 kts 210°
2026-05-06 01:17 38.42238 141.08631 30222 ft 416 kts 210°
2026-05-06 01:17 38.36982 141.05555 30218 ft 416 kts 210°
2026-05-06 01:18 38.31732 141.02487 30226 ft 415 kts 210°
2026-05-06 01:18 38.26484 140.99425 30213 ft 415 kts 210°
2026-05-06 01:19 38.21272 140.96388 30216 ft 414 kts 210°
2026-05-06 01:19 38.16041 140.93346 30216 ft 413 kts 210°
2026-05-06 01:20 38.10981 140.90011 30252 ft 407 kts 215°
2026-05-06 01:20 38.06092 140.86387 30238 ft 406 kts 215°
2026-05-06 01:21 38.01205 140.82785 30224 ft 406 kts 215°
2026-05-06 01:21 37.96317 140.79200 30224 ft 406 kts 215°
2026-05-06 01:22 37.91420 140.75618 30201 ft 406 kts 215°
2026-05-06 01:22 37.86562 140.72082 30230 ft 402 kts 215°
2026-05-06 01:23 37.81722 140.68541 30171 ft 402 kts 215°
2026-05-06 01:23 37.76866 140.64998 30220 ft 407 kts 214°
2026-05-06 01:24 37.71474 140.62450 30197 ft 423 kts 199°
2026-05-06 01:24 37.65719 140.60880 30225 ft 422 kts 200°
2026-05-06 01:25 37.59993 140.59255 30220 ft 421 kts 200°
2026-05-06 01:25 37.54275 140.57614 30216 ft 420 kts 200°
2026-05-06 01:26 37.48583 140.55983 30201 ft 419 kts 200°
2026-05-06 01:26 37.42912 140.54362 30213 ft 417 kts 201°
2026-05-06 01:27 37.37257 140.52749 30226 ft 416 kts 201°
2026-05-06 01:27 37.31629 140.51144 30232 ft 415 kts 201°
2026-05-06 01:28 37.25999 140.49543 30167 ft 414 kts 201°
2026-05-06 01:28 37.20419 140.47944 30267 ft 412 kts 202°
2026-05-06 01:29 37.14783 140.46324 30249 ft 416 kts 201°
2026-05-06 01:29 37.09144 140.44735 30241 ft 415 kts 201°
2026-05-06 01:30 37.03513 140.43150 30247 ft 414 kts 202°
2026-05-06 01:30 36.97937 140.41583 30244 ft 413 kts 202°
2026-05-06 01:31 36.92331 140.39999 30222 ft 413 kts 203°
2026-05-06 01:31 36.86726 140.38431 30252 ft 413 kts 202°
2026-05-06 01:32 36.81122 140.36871 30258 ft 412 kts 204°
2026-05-06 01:32 36.75523 140.35313 30239 ft 413 kts 204°
2026-05-06 01:33 36.69825 140.34017 30256 ft 419 kts 200°
2026-05-06 01:33 36.64071 140.32895 30004 ft 416 kts 201°
2026-05-06 01:34 36.61252 140.32331 29420 ft 407 kts 200°
2026-05-06 01:34 36.58446 140.31768 28407 ft 410 kts 199°
2026-05-06 01:34 36.55609 140.31192 27180 ft 418 kts 198°
2026-05-06 01:34 36.52707 140.30601 25863 ft 427 kts 197°
2026-05-06 01:35 36.49746 140.30005 24736 ft 433 kts 195°
2026-05-06 01:35 36.46799 140.29296 23909 ft 425 kts 201°
2026-05-06 01:35 36.44198 140.27703 23089 ft 413 kts 218°
2026-05-06 01:35 36.42063 140.25382 22279 ft 405 kts 228°
2026-05-06 01:36 36.40313 140.22664 21342 ft 404 kts 237°
2026-05-06 01:36 36.39011 140.19579 20391 ft 406 kts 250°
2026-05-06 01:36 36.38268 140.16226 19698 ft 401 kts 256°
2026-05-06 01:36 36.37653 140.12863 19008 ft 398 kts 256°
2026-05-06 01:37 36.37031 140.09533 18285 ft 395 kts 257°
2026-05-06 01:37 36.36278 140.06266 17502 ft 394 kts 246°
2026-05-06 01:37 36.34753 140.03475 16877 ft 391 kts 227°
2026-05-06 01:37 36.32635 140.01383 16101 ft 391 kts 212°
2026-05-06 01:38 36.30145 140.00002 15314 ft 393 kts 197°
2026-05-06 01:38 36.27452 139.99493 14655 ft 391 kts 184°
2026-05-06 01:38 36.24748 139.99330 13971 ft 389 kts 182°
2026-05-06 01:38 36.22048 139.99201 13262 ft 385 kts 182°
2026-05-06 01:39 36.19389 139.99066 12607 ft 381 kts 182°
2026-05-06 01:39 36.16761 139.98914 11984 ft 375 kts 182°
2026-05-06 01:39 36.14170 139.98749 11393 ft 370 kts 183°
2026-05-06 01:39 36.11703 139.98585 11301 ft 340 kts 183°
2026-05-06 01:40 36.09423 139.98432 11136 ft 319 kts 182°
2026-05-06 01:40 36.07255 139.98313 10999 ft 303 kts 179°
2026-05-06 01:40 36.05242 139.98820 10925 ft 291 kts 160°
2026-05-06 01:40 36.03333 139.99699 10787 ft 301 kts 160°
2026-05-06 01:41 36.01363 140.00604 10703 ft 298 kts 160°
2026-05-06 01:41 35.99510 140.01453 10555 ft 282 kts 161°
2026-05-06 01:41 35.97728 140.02266 10437 ft 265 kts 161°
2026-05-06 01:41 35.96035 140.03034 10337 ft 254 kts 161°
2026-05-06 01:42 35.94396 140.03775 10204 ft 249 kts 161°
2026-05-06 01:42 35.92749 140.04519 9899 ft 256 kts 161°
2026-05-06 01:42 35.91064 140.05279 9683 ft 259 kts 161°
2026-05-06 01:42 35.89351 140.06051 9387 ft 263 kts 161°
2026-05-06 01:43 35.87642 140.06821 9086 ft 262 kts 161°
2026-05-06 01:43 35.85935 140.07589 8805 ft 260 kts 161°
2026-05-06 01:43 35.84245 140.08350 8531 ft 258 kts 162°
2026-05-06 01:43 35.82563 140.09106 8264 ft 257 kts 162°
2026-05-06 01:44 35.80890 140.09858 7992 ft 255 kts 162°
2026-05-06 01:44 35.79224 140.10607 7725 ft 254 kts 162°
2026-05-06 01:44 35.77565 140.11353 7453 ft 253 kts 163°
2026-05-06 01:44 35.75918 140.12094 7249 ft 249 kts 163°
2026-05-06 01:45 35.74333 140.12807 7198 ft 239 kts 163°
2026-05-06 01:45 35.72789 140.13501 7052 ft 233 kts 163°
2026-05-06 01:45 35.71295 140.14171 6972 ft 224 kts 164°
2026-05-06 01:45 35.69847 140.14819 6856 ft 218 kts 164°
2026-05-06 01:46 35.68443 140.15447 6768 ft 211 kts 164°
2026-05-06 01:46 35.67060 140.16064 6641 ft 213 kts 165°
2026-05-06 01:46 35.65665 140.16685 6383 ft 211 kts 164°
2026-05-06 01:46 35.64277 140.16990 6107 ft 199 kts 192°
2026-05-06 01:47 35.63436 140.16639 6039 ft 187 kts 209°
2026-05-06 01:47 35.62433 140.15706 5797 ft 179 kts 228°
2026-05-06 01:47 35.61775 140.14458 5625 ft 169 kts 237°
2026-05-06 01:47 35.61186 140.13233 5402 ft 164 kts 237°
2026-05-06 01:48 35.60624 140.12001 5284 ft 166 kts 248°
2026-05-06 01:48 35.60546 140.10590 5296 ft 166 kts 266°
2026-05-06 01:48 35.60547 140.09166 5247 ft 167 kts 265°
2026-05-06 01:48 35.60541 140.07770 5236 ft 162 kts 264°
2026-05-06 01:49 35.60531 140.06348 4962 ft 166 kts 265°
2026-05-06 01:49 35.60525 140.04990 4795 ft 152 kts 265°
2026-05-06 01:49 35.60520 140.03746 4609 ft 142 kts 265°
2026-05-06 01:49 35.60513 140.02542 4395 ft 139 kts 265°
2026-05-06 01:50 35.60506 140.01370 4208 ft 135 kts 264°
2026-05-06 01:50 35.60499 140.00230 4028 ft 132 kts 265°
2026-05-06 01:50 35.60493 139.99105 3860 ft 132 kts 264°
2026-05-06 01:50 35.60485 139.97945 3695 ft 140 kts 265°
2026-05-06 01:51 35.60476 139.96730 3527 ft 145 kts 265°
2026-05-06 01:51 35.60468 139.95477 3325 ft 149 kts 264°
2026-05-06 01:51 35.60461 139.94200 3108 ft 150 kts 264°
2026-05-06 01:51 35.60454 139.92918 2908 ft 150 kts 264°
2026-05-06 01:52 35.60447 139.91652 2713 ft 150 kts 264°
2026-05-06 01:52 35.60438 139.90367 2527 ft 151 kts 264°
2026-05-06 01:52 35.60430 139.89068 2321 ft 155 kts 264°
2026-05-06 01:52 35.60420 139.87726 2117 ft 159 kts 264°
2026-05-06 01:53 35.60411 139.86365 1904 ft 160 kts 264°
2026-05-06 01:53 35.60404 139.85055 1853 ft 147 kts 264°
2026-05-06 01:53 35.60392 139.83821 1751 ft 142 kts 263°
2026-05-06 01:53 35.60353 139.82631 1624 ft 137 kts 258°
2026-05-06 01:54 35.60149 139.81494 1416 ft 138 kts 246°
2026-05-06 01:54 35.59718 139.80447 1144 ft 136 kts 230°
2026-05-06 01:54 35.59027 139.79636 753 ft 140 kts 214°
2026-05-06 01:54 35.58216 139.78950 475 ft 139 kts 213°
2026-05-06 01:55 35.57448 139.78301 249 ft 132 kts 213°
2026-05-06 01:55 35.56729 139.77688 50 ft 117 kts 213°
2026-05-06 01:55 35.56159 139.77206 28 ft 53 kts 215°
2026-05-06 01:55 35.56063 139.77134 27 ft 12 kts 186°
2026-05-06 01:56 35.55971 139.77181 22 ft 18 kts 150°
2026-05-06 01:56 35.55860 139.77259 23 ft 18 kts 149°
2026-05-06 01:56 35.55752 139.77336 22 ft 18 kts 150°
2026-05-06 01:56 35.55648 139.77410 25 ft 17 kts 149°
2026-05-06 01:57 35.55548 139.77483 25 ft 17 kts 149°
2026-05-06 01:57 35.55434 139.77563 22 ft 21 kts 150°
2026-05-06 01:57 35.55300 139.77658 24 ft 23 kts 150°
2026-05-06 01:57 35.55158 139.77757 25 ft 23 kts 150°
2026-05-06 01:58 35.55023 139.77854 23 ft 22 kts 149°
2026-05-06 01:58 35.54891 139.77948 23 ft 21 kts 151°
2026-05-06 01:58 35.54767 139.78035 24 ft 20 kts 149°
2026-05-06 01:58 35.54648 139.78122 23 ft 20 kts 149°
2026-05-06 01:59 35.54524 139.78209 24 ft 22 kts 150°
2026-05-06 01:59 35.54382 139.78309 23 ft 24 kts 150°
2026-05-06 01:59 35.54251 139.78421 25 ft 20 kts 111°
2026-05-06 01:59 35.54301 139.78570 25 ft 20 kts 60°
2026-05-06 02:00 35.54380 139.78738 25 ft 25 kts 59°
2026-05-06 02:00 35.54468 139.78922 27 ft 24 kts 60°
2026-05-06 02:00 35.54550 139.79094 24 ft 23 kts 59°
2026-05-06 02:00 35.54629 139.79260 24 ft 22 kts 58°
2026-05-06 02:01 35.54707 139.79421 24 ft 22 kts 60°
2026-05-06 02:01 35.54795 139.79531 23 ft 18 kts
2026-05-06 02:01 35.54904 139.79468 23 ft 17 kts 330°
2026-05-06 02:01 35.55005 139.79394 26 ft 17 kts 327°
2026-05-06 02:02 35.55066 139.79291 23 ft 16 kts 257°
2026-05-06 02:02 35.55022 139.79192 24 ft 8 kts 223°
2026-05-06 02:02 35.54985 139.79192 23 ft 5 kts 161°
2026-05-06 02:02 35.54952 139.79209 24 ft 5 kts 156°
2026-05-06 02:03 35.54940 139.79216 25 ft 0 kts 155°